TimeCST,TemperatureF,Dew PointF,Humidity,Sea Level PressureIn,VisibilityMPH,Wind Direction,Wind SpeedMPH,Gust SpeedMPH,PrecipitationIn,Events,Conditions,WindDirDegrees,DateUTC
12:53 AM,39.0,26.1,60,30.28,10.0,North,8.1,-,N/A,,Clear,350,2013-03-02 06:53:00
1:53 AM,37.0,26.1,65,30.30,10.0,North,8.1,-,N/A,,Clear,350,2013-03-02 07:53:00
2:53 AM,35.1,25.0,67,30.29,10.0,NNW,5.8,-,N/A,,Partly Cloudy,340,2013-03-02 08:53:00
3:53 AM,34.0,25.0,70,30.29,10.0,North,4.6,-,N/A,,Clear,360,2013-03-02 09:53:00
4:53 AM,30.9,25.0,79,30.31,10.0,NW,4.6,-,N/A,,Mostly Cloudy,320,2013-03-02 10:53:00
5:53 AM,32.0,25.0,75,30.33,10.0,WNW,5.8,-,N/A,,Mostly Cloudy,300,2013-03-02 11:53:00
6:53 AM,32.0,24.1,73,30.36,10.0,North,8.1,-,N/A,,Mostly Cloudy,10,2013-03-02 12:53:00
7:53 AM,34.0,18.0,52,30.39,10.0,North,12.7,20.7,N/A,,Clear,350,2013-03-02 13:53:00
8:53 AM,35.1,16.0,46,30.40,9.0,North,16.1,25.3,0.00,Snow,Light Snow,350,2013-03-02 14:53:00
9:53 AM,37.9,16.0,41,30.40,10.0,North,13.8,20.7,0.00,,Clear,350,2013-03-02 15:53:00
10:53 AM,39.9,19.0,43,30.39,10.0,NNW,13.8,18.4,N/A,,Clear,330,2013-03-02 16:53:00
11:53 AM,42.1,18.0,38,30.38,10.0,North,13.8,21.9,N/A,,Clear,360,2013-03-02 17:53:00
12:53 PM,45.0,19.0,36,30.35,10.0,NW,15.0,23.0,N/A,,Clear,320,2013-03-02 18:53:00
1:53 PM,48.0,18.0,30,30.32,10.0,NNW,15.0,21.9,0.00,Rain,Light Rain,330,2013-03-02 19:53:00
2:53 PM,50.0,19.0,29,30.29,10.0,NNW,16.1,-,0.00,,Clear,340,2013-03-02 20:53:00
3:53 PM,51.1,18.0,27,30.29,10.0,NNW,15.0,-,N/A,,Clear,330,2013-03-02 21:53:00
4:53 PM,52.0,18.0,26,30.28,10.0,North,10.4,17.3,N/A,,Clear,350,2013-03-02 22:53:00
5:53 PM,50.0,18.0,28,30.29,10.0,NNW,9.2,-,N/A,,Clear,340,2013-03-02 23:53:00
7:53 PM,41.0,23.0,49,30.30,10.0,Calm,Calm,-,N/A,,Clear,0,2013-03-03 01:53:00
8:53 PM,39.0,24.1,55,30.30,10.0,Calm,Calm,-,N/A,,Clear,0,2013-03-03 02:53:00
9:53 PM,37.9,25.0,60,30.30,10.0,Calm,Calm,-,N/A,,Clear,0,2013-03-03 03:53:00
10:53 PM,37.0,27.0,67,30.30,10.0,Calm,Calm,-,N/A,,Clear,0,2013-03-03 04:53:00
11:53 PM,35.1,27.0,72,30.27,10.0,Calm,Calm,-,N/A,,Clear,0,2013-03-03 05:53:00